Weather History for Opa Locka, FL

Change the Weather History Date:

Thursday, October 4, 2012

  Actual Average Record
Temperature  
Mean Temperature 84 °F -  
Max Temperature 90 °F 88 °F 92 °F (1992)
Min Temperature 78 °F 73 °F 65 °F (1976)
Cooling Degree Days 18    
Growing Degree Days 34 (Base 50)    
Moisture  
Dew Point 76 °F    
Average Humidity 82    
Maximum Humidity 96    
Minimum Humidity 63    
Precipitation  
Precipitation 0.29 in - - ()
Sea Level Pressure  
Sea Level Pressure 30.12 in    
Wind  
Wind Speed 6 mph (ESE)    
Max Wind Speed 14 mph    
Max Gust Speed 22 mph    
Visibility 10 miles    
Events Rain , Thunderstorm    
Averages and records for this station are not official NWS values.
T = Trace of Precipitation, MM = Missing Value Source: NWS Daily Summary

Daily Weather History Graph

Daily Weather History Graph

Search for Another Location

Airport:

Trip Planner

Search our weather history database for the weather conditions in past years. The results will help you decide how hot, cold, wet, or windy it might be!

Date:

Astronomy

Oct. 04, 2012 Rise Set
Actual Time 7:14 AM EDT 7:03 PM EDT
Civil Twilight 6:51 AM EDT 7:26 PM EDT
Nautical Twilight 6:25 AM EDT 7:53 PM EDT
Astronomical Twilight 5:58 AM EDT 8:20 PM EDT
Moon 10:04 PM EDT (10/4) 11:05 AM EDT (10/4)
Length of Visible Light 12h 35m
Length of Day
11h 48m
Waning Gibbous, 82% of the Moon is Illuminated
Oct 4
Waning Gibbous
Oct 8
Last Quarter
Oct 15
New
Oct 21
First Quarter
Oct 29
Full

Hourly Weather History & Observations

Time (EDT) Temp. Heat Index Dew Point Humidity Pressure Visibility Wind Dir Wind Speed Gust Speed Precip Events Conditions
12:53 AM 81.0 °F 88.6 °F 78.1 °F 91% 30.15 in 10.0 mi East 3.5 mph - 0.00 in Rain Light Rain
1:53 AM 81.0 °F 88.6 °F 78.1 °F 91% 30.14 in 10.0 mi East 4.6 mph - 0.02 in Rain Light Rain
2:37 AM 78.8 °F - 75.2 °F 89% 30.13 in 10.0 mi SSW 6.9 mph - 0.03 in Rain , Thunderstorm Light Thunderstorms and Rain
2:53 AM 78.1 °F - 75.9 °F 93% 30.12 in 10.0 mi SW 4.6 mph - 0.05 in Rain Light Rain
3:23 AM 78.8 °F - 75.2 °F 89% 30.12 in 6.0 mi SSE 10.4 mph - 0.06 in Rain , Thunderstorm Rain
3:38 AM 78.8 °F - 75.2 °F 89% 30.11 in 10.0 mi ESE 5.8 mph - 0.15 in Rain Light Rain
3:53 AM 79.0 °F - 77.0 °F 94% 30.11 in 10.0 mi SE 6.9 mph - 0.15 in Rain Light Rain
4:53 AM 78.1 °F - 77.0 °F 96% 30.11 in 10.0 mi Calm Calm - 0.02 in   Overcast
5:32 AM 78.8 °F - 77.0 °F 94% 30.12 in 10.0 mi Calm Calm - N/A   Mostly Cloudy
5:53 AM 79.0 °F - 77.0 °F 94% 30.12 in 10.0 mi Calm Calm - 0.00 in Rain Light Rain
6:53 AM 79.0 °F - 77.0 °F 94% 30.12 in 10.0 mi East 4.6 mph - 0.05 in   Partly Cloudy
7:53 AM 80.1 °F 85.8 °F 77.0 °F 90% 30.13 in 10.0 mi ESE 8.1 mph - 0.00 in   Partly Cloudy
8:53 AM 84.0 °F 96.0 °F 79.0 °F 85% 30.14 in 10.0 mi ESE 6.9 mph - N/A   Clear
9:29 AM 84.2 °F 96.1 °F 78.8 °F 84% 30.14 in 10.0 mi ESE 12.7 mph 16.1 mph N/A   Mostly Cloudy
9:38 AM 84.2 °F 94.1 °F 77.0 °F 79% 30.15 in 10.0 mi East 10.4 mph 18.4 mph N/A   Scattered Clouds
9:53 AM 86.0 °F 96.9 °F 77.0 °F 74% 30.16 in 10.0 mi East 10.4 mph - N/A   Scattered Clouds
10:17 AM 84.2 °F 92.3 °F 75.2 °F 74% 30.16 in 10.0 mi East 9.2 mph - N/A   Mostly Cloudy
10:26 AM 86.0 °F 96.9 °F 77.0 °F 74% 30.16 in 10.0 mi East 11.5 mph - N/A   Mostly Cloudy
10:53 AM 86.0 °F 96.0 °F 75.9 °F 72% 30.16 in 10.0 mi ESE 11.5 mph - N/A   Scattered Clouds
11:53 AM 86.0 °F 95.1 °F 75.0 °F 70% 30.16 in 10.0 mi ESE 11.5 mph - N/A   Partly Cloudy
12:53 PM 89.1 °F 99.1 °F 75.0 °F 63% 30.14 in 10.0 mi SE 13.8 mph 21.9 mph N/A   Partly Cloudy
1:53 PM 88.0 °F 98.5 °F 75.9 °F 67% 30.13 in 10.0 mi ESE 8.1 mph - N/A   Mostly Cloudy
2:53 PM 88.0 °F 97.5 °F 75.0 °F 65% 30.09 in 10.0 mi SE 9.2 mph - N/A   Clear
3:53 PM 87.1 °F 97.3 °F 75.9 °F 69% 30.08 in 10.0 mi SE 11.5 mph - N/A   Partly Cloudy
4:53 PM 86.0 °F 95.1 °F 75.0 °F 70% 30.07 in 10.0 mi East 11.5 mph - N/A   Clear
5:53 PM 84.2 °F 92.3 °F 75.2 °F 74% 30.07 in 10.0 mi East 10.4 mph - N/A   Clear
6:53 PM 82.9 °F 90.8 °F 75.9 °F 79% 30.08 in 10.0 mi East 8.1 mph - N/A   Scattered Clouds
7:53 PM 82.9 °F 90.8 °F 75.9 °F 79% 30.09 in 10.0 mi NE 4.6 mph - N/A   Scattered Clouds
8:53 PM 82.0 °F 89.4 °F 75.9 °F 82% 30.11 in 10.0 mi ENE 4.6 mph - N/A   Scattered Clouds
9:53 PM 82.0 °F 89.4 °F 75.9 °F 82% 30.13 in 10.0 mi NE 4.6 mph - N/A   Partly Cloudy
10:53 PM 82.0 °F 89.4 °F 75.9 °F 82% 30.13 in 10.0 mi ENE 5.8 mph - N/A   Clear
11:53 PM 81.0 °F 87.3 °F 75.9 °F 85% 30.10 in 10.0 mi ENE 5.8 mph - N/A   Clear